DUCHIFAT-3

Last updated on Tue Dec 09 2025 00:03:11 GMT+0000 (Coordinated Universal Time)

1 44854U 19089C 25342.83480616 .09794280 36047-5 11773-2 0 9999 2 44854 36.9155 249.5046 0006919 243.1769 116.8309 16.35254048331523

Satellite not in orbit

DUCHIFAT-3